AV279 Weather Reports


time (UTC)temp
F
wind
direction
speed
knots
gust
knots
rain 1hr
in
rain 24hr
in
rain mn
in
humidity
%
barometer
mb
20260509143649 66 23 7.0 15.6 0.00 0.00 0.00 55 1015.1
20260509142629 67 338 7.8 13.0 0.00 0.00 0.00 55 1015.1
20260509141619 67 23 10.4 19.1 0.00 0.00 0.00 54 1015.4
20260509140619 67 23 6.1 10.4 0.00 0.00 0.00 53 1015.2
20260509135649 68 23 7.0 12.2 0.00 0.00 0.00 53 1015.2
20260509134619 68 23 4.3 9.6 0.00 0.00 0.00 52 1015.4
20260509133639 69 0 7.0 13.0 0.00 0.00 0.00 52 1015.4
20260509132639 70 45 7.8 16.5 0.00 0.00 0.00 50 1015.4
20260509131650 70 23 5.2 10.4 0.00 0.00 0.00 52 1015.4
20260509130620 69 23 7.0 12.2 0.00 0.00 0.00 52 1015.4
20260509125651 70 45 5.2 10.4 0.00 0.00 0.00 50 1015.4
20260509124639 70 45 9.6 16.5 0.00 0.00 0.00 49 1015.4
20260509123640 71 0 8.7 14.8 0.00 0.00 0.00 52 1015.6
20260509122629 71 0 7.0 11.3 0.00 0.00 0.00 52 1015.7
20260509121640 70 338 6.1 12.2 0.00 0.00 0.00 52 1015.8
20260509120618 70 45 6.1 11.3 0.00 0.00 0.00 50 1015.9
20260509115618 70 23 6.1 12.2 0.00 0.00 0.00 51 1015.9
20260509114629 70 0 7.0 12.2 0.00 0.00 0.00 50 1016.0
20260509113619 70 23 8.7 12.2 0.00 0.00 0.00 49 1016.2
20260509112618 70 45 3.5 7.0 0.00 0.00 0.00 50 1016.3
20260509111629 71 45 5.2 9.6 0.00 0.00 0.00 49 1016.5
20260509110621 73 23 6.1 8.7 0.00 0.00 0.00 45 1016.5
20260509105618 71 68 3.5 6.1 0.00 0.00 0.00 47 1016.5
20260509104640 70 23 4.3 9.6 0.00 0.00 0.00 48 1016.6
20260509103631 71 23 4.3 9.6 0.00 0.00 0.00 48 1016.8
20260509102618 69 90 5.2 9.6 0.00 0.00 0.00 48 1016.7
20260509101640 69 338 2.6 3.5 0.00 0.00 0.00 51 1016.7
20260509100639 69 45 6.1 9.6 0.00 0.00 0.00 49 1016.8
20260509095618 69 45 7.0 9.6 0.00 0.00 0.00 48 1016.8
20260509094631 68 158 2.6 4.3 0.00 0.00 0.00 51 1016.9
20260509093619 68 45 6.1 9.6 0.00 0.00 0.00 50 1016.9
20260509092618 68 23 6.1 10.4 0.00 0.00 0.00 51 1017.0
20260509091631 68 90 5.2 8.7 0.00 0.00 0.00 52 1017.0
20260509090631 67 45 4.3 9.6 0.00 0.00 0.00 52 1017.0
20260509085620 66 45 2.6 4.3 0.00 0.00 0.00 56 1017.0
20260509084650 66 45 3.5 5.2 0.00 0.00 0.00 56 1017.0
20260509083620 65 90 2.6 5.2 0.00 0.00 0.00 59 1017.0
20260509082620 65 45 3.5 4.3 0.00 0.00 0.00 60 1017.0
20260509081700 64 68 0.9 2.6 0.00 0.00 0.00 63 1017.1
20260509080630 64 0 3.5 7.0 0.00 0.00 0.00 64 1017.2
20260509075639 62 113 1.7 3.5 0.00 0.00 0.00 65 1017.1
20260509074620 62 45 3.5 6.1 0.00 0.00 0.00 66 1017.1
20260509073620 61 23 1.7 3.5 0.00 0.00 0.00 68 1017.2
20260509072620 60 45 1.7 2.6 0.00 0.00 0.00 68 1017.2
20260509071620 59 23 2.6 3.5 0.00 0.00 0.00 71 1017.2
20260509070641 58 23 2.6 4.3 0.00 0.00 0.00 71 1017.2
20260509065639 57 23 2.6 4.3 0.00 0.00 0.00 74 1017.2
20260509064620 55 113 2.6 6.1 0.00 0.00 0.00 76 1017.2
20260509063817 54 45 1.7 2.6 0.00 0.00 0.00 78 1017.2
20260509062620 53 23 2.6 3.5 0.00 0.00 0.00 79 1017.2
20260509061620 52 45 0.9 2.6 0.00 0.00 0.00 81 1017.2
20260509060620 51 0.0 0.0 0.00 0.00 0.00 81 1017.2
20260509055619 50 68 0.9 1.7 0.00 0.00 0.00 82 1017.1
20260509054620 50 45 0.9 1.7 0.00 0.00 0.00 83 1017.1
20260509053620 49 0.0 1.7 0.00 0.00 0.00 84 1017.1
20260509052620 49 45 0.9 0.9 0.00 0.00 0.00 85 1017.0
20260509051620 48 0.0 0.9 0.00 0.00 0.00 85 1016.9
20260509050631 48 68 0.9 1.7 0.00 0.00 0.00 86 1017.0
20260509045620 48 0.0 0.0 0.00 0.00 0.00 86 1016.9
20260509044640 48 90 0.9 1.7 0.00 0.00 0.00 86 1016.9
20260509043620 48 45 0.9 1.7 0.00 0.00 0.00 86 1016.8
20260509042619 48 68 0.9 1.7 0.00 0.00 0.00 86 1016.7
20260509041619 48 0.0 0.9 0.00 0.00 0.00 86 1016.6
20260509040620 48 113 0.9 2.6 0.00 0.00 0.00 87 1016.8
20260509035630 48 45 0.9 2.6 0.00 0.00 0.00 87 1016.8
20260509034620 48 0 0.9 1.7 0.00 0.00 0.00 86 1016.9
20260509033651 48 45 0.9 1.7 0.00 0.00 0.00 86 1016.9
20260509032630 48 68 1.7 3.5 0.00 0.00 0.00 86 1017.0
20260509031619 48 23 1.7 2.6 0.00 0.00 0.00 86 1017.1
20260509030652 48 23 1.7 2.6 0.00 0.00 0.00 86 1017.0
20260509025630 48 23 1.7 5.2 0.00 0.00 0.00 86 1017.0
20260509024619 48 23 1.7 2.6 0.00 0.00 0.00 86 1017.1
20260509023620 48 23 1.7 2.6 0.00 0.00 0.00 86 1017.0
20260509022630 48 23 1.7 2.6 0.00 0.00 0.00 86 1017.0
20260509021630 48 23 3.5 4.3 0.00 0.00 0.00 86 1016.9
20260509020630 49 0 0.9 1.7 0.00 0.00 0.00 86 1016.9
20260509015630 49 23 1.7 2.6 0.00 0.00 0.00 85 1017.0
20260509014630 49 23 0.9 2.6 0.00 0.00 0.00 85 1017.0
20260509013619 49 0.0 0.0 0.00 0.00 0.00 85 1017.1
20260509012619 49 23 0.9 1.7 0.00 0.00 0.00 85 1017.2
20260509011650 49 23 1.7 1.7 0.00 0.00 0.00 85 1017.2
20260509010650 49 23 1.7 2.6 0.00 0.00 0.00 85 1017.2
20260509005630 50 23 0.9 2.6 0.00 0.00 0.00 84 1017.2
20260509004650 50 45 1.7 2.6 0.00 0.00 0.00 84 1017.1
20260509003619 50 0 1.7 3.5 0.00 0.00 0.00 84 1017.1
20260509002619 50 23 1.7 2.6 0.00 0.00 0.00 84 1017.1
20260509001619 50 0 1.7 1.7 0.00 0.00 0.00 84 1017.1
20260509000619 50 0 0.9 1.7 0.00 0.00 0.00 83 1017.1
20260508235640 51 68 0.9 2.6 0.00 0.00 0.00 83 1017.1
20260508234620 51 45 0.9 2.6 0.00 0.00 0.00 83 1017.0
20260508233630 51 45 0.9 1.7 0.00 0.00 0.00 82 1017.1
20260508232640 51 23 0.9 1.7 0.00 0.00 0.00 82 1017.2
20260508231640 52 45 0.9 1.7 0.00 0.00 0.00 82 1017.2
20260508230620 52 45 0.9 1.7 0.00 0.00 0.00 81 1017.3
20260508225619 52 68 1.7 3.5 0.00 0.00 0.00 81 1017.4
20260508224630 52 23 1.7 3.5 0.00 0.00 0.00 81 1017.4
20260508223619 53 45 1.7 2.6 0.00 0.00 0.00 80 1017.3
20260508222630 53 68 1.7 2.6 0.00 0.00 0.00 80 1017.5
20260508221630 53 45 1.7 2.6 0.00 0.00 0.00 79 1017.3
20260508220620 54 68 1.7 2.6 0.00 0.00 0.00 79 1017.3
20260508215619 54 0 0.9 1.7 0.00 0.00 0.00 79 1017.3
20260508214639 54 45 1.7 2.6 0.00 0.00 0.00 78 1017.3
20260508213630 54 45 1.7 2.6 0.00 0.00 0.00 78 1017.2
20260508212620 54 90 2.6 6.1 0.00 0.00 0.00 78 1017.2
20260508211619 54 45 2.6 3.5 0.00 0.00 0.00 78 1017.2
20260508210619 54 45 1.7 3.5 0.00 0.00 0.00 77 1017.2
20260508205619 55 90 2.6 4.3 0.00 0.00 0.00 77 1017.1
20260508204620 55 45 2.6 4.3 0.00 0.00 0.00 77 1017.0
20260508203619 55 23 2.6 3.5 0.00 0.00 0.00 77 1017.0
20260508202630 56 45 3.5 5.2 0.00 0.00 0.00 76 1017.1
20260508201640 56 68 4.3 8.7 0.00 0.00 0.00 75 1017.1
20260508200619 56 45 2.6 3.5 0.00 0.00 0.00 74 1017.1
20260508195630 57 45 3.5 4.3 0.00 0.00 0.00 73 1017.0
20260508194619 57 23 2.6 4.3 0.00 0.00 0.00 72 1017.1
20260508193630 57 45 2.6 5.2 0.00 0.00 0.00 71 1016.9
20260508192619 58 45 3.5 7.8 0.00 0.00 0.00 70 1016.9
20260508191630 58 45 4.3 7.8 0.00 0.00 0.00 69 1016.8
20260508190619 59 23 1.7 3.5 0.00 0.00 0.00 67 1016.6
20260508185702 60 23 2.6 4.3 0.00 0.00 0.00 66 1016.6
20260508184641 60 23 6.1 10.4 0.00 0.00 0.00 65 1016.4
20260508183619 61 23 2.6 5.2 0.00 0.00 0.00 64 1016.4
20260508182619 61 45 3.5 7.8 0.00 0.00 0.00 63 1016.4
20260508181630 61 338 2.6 3.5 0.00 0.00 0.00 62 1016.3
20260508180639 62 23 3.5 5.2 0.00 0.00 0.00 61 1016.3
20260508175619 62 23 5.2 9.6 0.00 0.00 0.00 60 1016.2
20260508174818 62 45 5.2 8.7 0.00 0.00 0.00 59 1016.1
20260508174214 62 45 4.3 7.0 0.00 0.00 0.00 59 1016.1
20260508173712 62 0 5.2 7.8 0.00 0.00 0.00 60 1016.0
20260508172819 63 45 3.5 7.8 0.00 0.00 0.00 59 1016.1
20260508171819 63 45 2.6 4.3 0.00 0.00 0.00 59 1015.9
20260508170829 63 45 3.5 8.7 0.00 0.00 0.00 58 1015.8
20260508165819 63 45 7.0 10.4 0.00 0.00 0.00 58 1015.7
20260508164819 63 45 3.5 7.0 0.00 0.00 0.00 58 1015.7
20260508163819 64 45 4.3 10.4 0.00 0.00 0.00 57 1015.7
20260508162901 64 45 3.5 6.1 0.00 0.00 0.00 58 1015.7
20260508161902 64 0 7.0 9.6 0.00 0.00 0.00 57 1015.6
20260508160819 64 45 5.2 8.7 0.00 0.00 0.00 57 1015.6
20260508155819 64 45 3.5 6.1 0.00 0.00 0.00 57 1015.6
20260508154819 64 45 7.0 10.4 0.00 0.00 0.00 57 1015.6
20260508153819 64 45 3.5 7.0 0.00 0.00 0.00 57 1015.6
20260508152819 64 23 4.3 7.8 0.00 0.00 0.00 58 1015.8
20260508151819 64 45 2.6 4.3 0.00 0.00 0.00 57 1015.9
20260508150819 65 45 3.5 7.0 0.00 0.00 0.00 58 1015.8
20260508145829 64 0 5.2 11.3 0.00 0.00 0.00 58 1015.9
20260508144819 64 23 7.0 9.6 0.00 0.00 0.00 58 1015.9
20260508143819 64 23 7.0 12.2 0.00 0.00 0.00 58 1015.9